Location: Newark
(48.6461°N, 4.3644°W)
Time: 05:48:20
(UTC+00:00)

Transit 2A Rocket - Visible Passes

Search period start: 25 January 2020 00:00
Search period end: 04 February 2020 00:00
Orbit: 593 x 910 km, 66.7° (Epoch: 24 January)

Date Brightness Start Highest point End Pass type
(mag) Time Alt. Az. Time Alt. Az. Time Alt. Az.
25 Jan 4.5 05:52:36 23° SSW 05:55:17 82° ESE 05:59:40 10° NE visible
26 Jan 5.4 05:12:14 43° SE 05:12:49 46° ESE 05:17:00 10° NE visible
26 Jan 5.5 06:52:11 12° W 06:55:32 27° NW 06:59:21 10° NNE visible
27 Jan 6.7 04:31:34 23° E 04:31:34 23° E 04:34:05 10° ENE visible
27 Jan 4.9 06:11:31 33° W 06:12:47 42° NW 06:17:00 10° NNE visible
28 Jan 4.6 05:30:38 63° N 05:30:38 63° N 05:34:33 10° NNE visible
28 Jan 6.3 07:10:52 10° WNW 07:13:33 16° NNW 07:16:18 10° N visible
29 Jan 6.1 04:49:37 31° NE 04:49:37 31° NE 04:51:59 10° NE visible
29 Jan 5.8 06:29:33 20° WNW 06:30:37 22° NW 06:34:06 10° NNE visible
30 Jan 7.4 04:08:30 14° NE 04:08:30 14° NE 04:09:15 10° NE visible
30 Jan 5.5 05:48:24 30° NNW 05:48:24 30° NNW 05:51:47 10° NNE visible
31 Jan 6.1 05:07:12 27° NNE 05:07:12 27° NNE 05:09:24 10° NNE visible
31 Jan 6.5 06:47:07 11° NW 06:48:45 13° NNW 06:50:55 10° N visible
01 Feb 7.1 04:25:56 16° NE 04:25:56 16° NE 04:26:55 10° NE visible
01 Feb 6.2 06:05:50 18° NNW 06:05:50 18° NNW 06:08:48 10° NNE visible
02 Feb 6.4 05:24:31 20° N 05:24:31 20° N 05:26:33 10° NNE visible
03 Feb 6.9 04:43:08 16° NNE 04:43:08 16° NNE 04:44:13 10° NNE visible
03 Feb 6.7 06:23:02 11° NNW 06:23:59 11° NNW 06:25:27 10° N visible
